When you browse on this site, cookies collect data to enhance your experience and personalize the content and advertising you see.
Visit our Privacy Policy to learn more. By continuing to use the site, you agree to this use of cookies and data.
  • en Suisse
  • Liste des pays
  • À 7 jours
  • Température de l'eau
  • Carte satellitaire
  • Carte météo
  • Widgets météo
  • user-avatar
    Se connecter

    Météo par heure à Hérât

    Ce jour, 21 Juillet, Dimanche

    Heure Température Précipitation Vent Pression Humidité
    00:00 +33°C° 0 mm 11 m/s 677 mmHg 16%
    01:00 +32°C° 0 mm 10 m/s 677 mmHg 17%
    02:00 +32°C° 0 mm 9 m/s 677 mmHg 18%
    03:00 +31°C° 0 mm 8 m/s 677 mmHg 18%
    04:00 +29°C° 0 mm 7 m/s 677 mmHg 21%
    05:00 +30°C° 0 mm 7 m/s 677 mmHg 19%
    06:00 +33°C° 0 mm 8 m/s 678 mmHg 17%
    07:00 +35°C° 0 mm 9 m/s 679 mmHg 14%
    08:00 +37°C° 0 mm 10 m/s 679 mmHg 13%
    09:00 +39°C° 0 mm 12 m/s 679 mmHg 12%
    10:00 +42°C° 0 mm 14 m/s 679 mmHg 10%
    11:00 +43°C° 0 mm 14 m/s 679 mmHg 10%
    12:00 +43°C° 0 mm 14 m/s 678 mmHg 10%
    13:00 +45°C° 0 mm 14 m/s 678 mmHg 10%
    14:00 +46°C° 0 mm 14 m/s 678 mmHg 10%
    15:00 +46°C° 0 mm 14 m/s 677 mmHg 9%
    16:00 +47°C° 0 mm 14 m/s 677 mmHg 9%
    17:00 +45°C° 0 mm 13 m/s 677 mmHg 10%
    18:00 +42°C° 0 mm 13 m/s 677 mmHg 10%
    19:00 +41°C° 0 mm 12 m/s 677 mmHg 11%
    20:00 +39°C° 0 mm 12 m/s 677 mmHg 12%
    21:00 +38°C° 0 mm 13 m/s 677 mmHg 13%
    22:00 +37°C° 0 mm 13 m/s 677 mmHg 14%
    23:00 +36°C° 0 mm 11 m/s 677 mmHg 15%

    Demain, 22 Juillet, Lundi

    Heure Température Précipitation Vent Pression Humidité
    00:00 +34°C° 0 mm 9 m/s 677 mmHg 16%
    01:00 +34°C° 0 mm 8 m/s 677 mmHg 17%
    02:00 +33°C° 0 mm 7 m/s 676 mmHg 18%
    03:00 +32°C° 0 mm 7 m/s 676 mmHg 20%
    04:00 +30°C° 0 mm 7 m/s 676 mmHg 21%
    05:00 +32°C° 0 mm 8 m/s 677 mmHg 21%
    06:00 +33°C° 0 mm 8 m/s 677 mmHg 20%
    07:00 +35°C° 0 mm 9 m/s 678 mmHg 19%
    08:00 +37°C° 0 mm 10 m/s 678 mmHg 18%
    09:00 +38°C° 0 mm 12 m/s 678 mmHg 17%
    10:00 +41°C° 0 mm 13 m/s 678 mmHg 16%
    11:00 +41°C° 0 mm 13 m/s 678 mmHg 15%
    12:00 +42°C° 0 mm 13 m/s 678 mmHg 14%
    13:00 +43°C° 0 mm 13 m/s 678 mmHg 13%
    14:00 +42°C° 0 mm 13 m/s 677 mmHg 13%
    15:00 +42°C° 0 mm 13 m/s 677 mmHg 13%
    16:00 +42°C° 0 mm 13 m/s 676 mmHg 13%
    17:00 +41°C° 0 mm 13 m/s 676 mmHg 14%
    18:00 +38°C° 0 mm 12 m/s 676 mmHg 14%
    19:00 +36°C° 0 mm 12 m/s 676 mmHg 15%
    20:00 +36°C° 0 mm 12 m/s 676 mmHg 15%
    21:00 +34°C° 0 mm 12 m/s 676 mmHg 14%
    22:00 +33°C° 0 mm 12 m/s 676 mmHg 14%
    23:00 +32°C° 0 mm 11 m/s 676 mmHg 14%

    Après-demain, 23 Juillet, Mardi

    Heure Température Précipitation Vent Pression Humidité
    00:00 +31°C° 0 mm 10 m/s 675 mmHg 14%
    01:00 +31°C° 0 mm 10 m/s 675 mmHg 14%
    02:00 +29°C° 0 mm 9 m/s 675 mmHg 15%
    03:00 +28°C° 0 mm 8 m/s 674 mmHg 16%
    04:00 +27°C° 0 mm 7 m/s 674 mmHg 17%
    05:00 +29°C° 0 mm 7 m/s 674 mmHg 16%
    06:00 +31°C° 0 mm 8 m/s 675 mmHg 15%
    07:00 +33°C° 0 mm 8 m/s 676 mmHg 15%
    08:00 +36°C° 0 mm 10 m/s 676 mmHg 13%
    09:00 +37°C° 0 mm 11 m/s 676 mmHg 12%
    10:00 +39°C° 0 mm 12 m/s 676 mmHg 11%
    11:00 +41°C° 0 mm 12 m/s 676 mmHg 10%
    12:00 +42°C° 0 mm 13 m/s 676 mmHg 10%
    13:00 +43°C° 0 mm 13 m/s 675 mmHg 9%
    14:00 +42°C° 0 mm 13 m/s 675 mmHg 9%
    15:00 +42°C° 0 mm 14 m/s 675 mmHg 8%
    16:00 +42°C° 0 mm 14 m/s 674 mmHg 8%
    17:00 +39°C° 0 mm 13 m/s 674 mmHg 8%
    18:00 +38°C° 0 mm 12 m/s 674 mmHg 8%
    19:00 +36°C° 0 mm 11 m/s 674 mmHg 7%
    20:00 +34°C° 0 mm 10 m/s 674 mmHg 8%
    21:00 +33°C° 0 mm 10 m/s 674 mmHg 9%
    22:00 +32°C° 0 mm 9 m/s 675 mmHg 10%
    23:00 +31°C° 0 mm 8 m/s 674 mmHg 11%

    24 Juillet, Mercredi

    Heure Température Précipitation Vent Pression Humidité
    00:00 +29°C° 0 mm 7 m/s 674 mmHg 12%
    01:00 +28°C° 0 mm 6 m/s 673 mmHg 14%
    02:00 +27°C° 0 mm 5 m/s 673 mmHg 15%
    03:00 +26°C° 0 mm 4 m/s 673 mmHg 16%
    04:00 +26°C° 0 mm 4 m/s 672 mmHg 17%
    05:00 +28°C° 0 mm 4 m/s 673 mmHg 16%
    06:00 +29°C° 0 mm 4 m/s 674 mmHg 15%
    07:00 +32°C° 0 mm 5 m/s 674 mmHg 13%
    08:00 +35°C° 0 mm 6 m/s 675 mmHg 12%
    09:00 +38°C° 0 mm 8 m/s 675 mmHg 10%
    10:00 +42°C° 0 mm 10 m/s 675 mmHg 8%
    11:00 +43°C° 0 mm 12 m/s 675 mmHg 8%
    12:00 +43°C° 0 mm 14 m/s 675 mmHg 8%
    13:00 +45°C° 0 mm 16 m/s 674 mmHg 8%
    14:00 +45°C° 0 mm 16 m/s 674 mmHg 8%
    15:00 +45°C° 0 mm 16 m/s 674 mmHg 7%
    16:00 +45°C° 0 mm 17 m/s 673 mmHg 7%
    17:00 +42°C° 0 mm 15 m/s 673 mmHg 8%
    18:00 +41°C° 0 mm 14 m/s 673 mmHg 9%
    19:00 +38°C° 0 mm 13 m/s 673 mmHg 10%
    20:00 +37°C° 0 mm 12 m/s 673 mmHg 12%
    21:00 +36°C° 0 mm 12 m/s 674 mmHg 15%
    22:00 +34°C° 0 mm 11 m/s 674 mmHg 17%
    23:00 +33°C° 0 mm 11 m/s 674 mmHg 19%

    25 Juillet, Jeudi

    Heure Température Précipitation Vent Pression Humidité
    00:00 +32°C° 0 mm 10 m/s 673 mmHg 21%
    01:00 +31°C° 0 mm 10 m/s 673 mmHg 22%
    02:00 +29°C° 0 mm 9 m/s 673 mmHg 23%
    03:00 +28°C° 0 mm 8 m/s 673 mmHg 24%
    04:00 +27°C° 0 mm 7 m/s 673 mmHg 25%
    05:00 +28°C° 0 mm 8 m/s 673 mmHg 22%
    06:00 +31°C° 0 mm 8 m/s 674 mmHg 19%
    07:00 +32°C° 0 mm 8 m/s 674 mmHg 16%
    08:00 +34°C° 0 mm 10 m/s 674 mmHg 14%
    09:00 +37°C° 0 mm 11 m/s 674 mmHg 11%
    10:00 +39°C° 0 mm 13 m/s 675 mmHg 8%
    11:00 +41°C° 0 mm 15 m/s 674 mmHg 8%
    12:00 +42°C° 0 mm 16 m/s 674 mmHg 8%
    13:00 +44°C° 0 mm 17 m/s 674 mmHg 8%
    14:00 +45°C° 0 mm 17 m/s 673 mmHg 9%
    15:00 +45°C° 0 mm 17 m/s 673 mmHg 9%
    16:00 +45°C° 0 mm 17 m/s 673 mmHg 10%
    17:00 +44°C° 0 mm 16 m/s 673 mmHg 11%
    18:00 +41°C° 0 mm 15 m/s 673 mmHg 12%
    19:00 +38°C° 0 mm 14 m/s 673 mmHg 14%
    20:00 +37°C° 0 mm 14 m/s 673 mmHg 15%
    21:00 +36°C° 0 mm 14 m/s 673 mmHg 16%
    22:00 +34°C° 0 mm 14 m/s 674 mmHg 18%
    23:00 +33°C° 0 mm 13 m/s 673 mmHg 19%

    26 Juillet, Vendredi

    Heure Température Précipitation Vent Pression Humidité
    00:00 +33°C° 0 mm 12 m/s 673 mmHg 20%
    01:00 +32°C° 0 mm 11 m/s 673 mmHg 21%
    02:00 +31°C° 0 mm 10 m/s 673 mmHg 22%
    03:00 +29°C° 0 mm 10 m/s 673 mmHg 22%
    04:00 +29°C° 0 mm 9 m/s 673 mmHg 23%
    05:00 +31°C° 0 mm 10 m/s 673 mmHg 21%
    06:00 +33°C° 0 mm 11 m/s 674 mmHg 19%
    07:00 +36°C° 0 mm 12 m/s 674 mmHg 16%
    08:00 +38°C° 0 mm 13 m/s 674 mmHg 14%
    09:00 +41°C° 0 mm 14 m/s 674 mmHg 12%
    10:00 +42°C° 0 mm 15 m/s 674 mmHg 10%
    11:00 +43°C° 0 mm 15 m/s 674 mmHg 10%
    12:00 +45°C° 0 mm 14 m/s 674 mmHg 9%
    13:00 +46°C° 0 mm 14 m/s 674 mmHg 9%
    14:00 +46°C° 0 mm 14 m/s 673 mmHg 9%
    15:00 +45°C° 0 mm 15 m/s 673 mmHg 9%
    16:00 +45°C° 0 mm 15 m/s 673 mmHg 9%
    17:00 +43°C° 0 mm 14 m/s 673 mmHg 10%
    18:00 +41°C° 0 mm 14 m/s 673 mmHg 11%
    19:00 +38°C° 0 mm 13 m/s 672 mmHg 12%
    20:00 +38°C° 0 mm 12 m/s 673 mmHg 12%
    21:00 +37°C° 0 mm 12 m/s 673 mmHg 13%
    22:00 +36°C° 0 mm 12 m/s 673 mmHg 14%
    23:00 +34°C° 0 mm 11 m/s 673 mmHg 14%
    Voir plus